User: anonymous   Login
Location: Home
(44.6062°N, 75.6910°W)
Time: 01:00:47
(UTC-04:00)
Language:

Apple - Orbit

View from above orbital plane
View from above orbital plane
View from above satellite
View from above satellite

Ground track
Ground track

The orbit data is extracted from the following two-line orbital elements,

1 12545U 81057B   17292.86157080 -.00000157 +00000-0 +00000-0 0  9998
2 12545 013.4448 329.3300 0022617 147.8129 210.7942 01.00051135090744
Epoch (UTC): 19 October 2017 20:40:39
Eccentricity: 0.0022617
inclination: 13.4448°
perigee height: 35752 km
apogee height: 35943 km
right ascension of ascending node: 329.3300°
argument of perigee: 147.8129°
revolutions per day: 1.00051135
mean anomaly at epoch: 210.7942°
orbit number at epoch: 9074

The dashed part of the orbit path shows where the satellite is in the earth's shadow,  

DLR